Showing default

ORBCOMM FM 13, 25420

Orbit data source: Space-Track

ORBCOMM FM 13, 25420 is a payload satellite owned by Orbcomm (US) in LEO that was launched on Sun, 02 Aug 1998 UTC via a PEGASUS XL/HAPS launch vehicle from the Pegasus Launch, Eastern Range Air Space (ERAS). Payload-class satellites include a variety of spacecraft equipped with specific instruments for various scientific and technological missions. These include communications satellites like Starlink; space stations such as the ISS; scientific satellites like the Hubble; Earth observation satellites from companies like Planet Labs, Umbra, and HawkEye 360; GPS; miniature CubeSats for education and research; and military/defense satellites.

Loading next visibility...
Identifier
25420, 1998-046H
Orbit
LEO
Country
Flag of USUS / ORB
Related business
Manufacturer
OSC-Germantown
Mission
Non-operational Commercial Communications
Bus & Motor
MICROSTAR, Unknown motor
Mass
42 kg wet, 42 kg dry
Launch date (UTC)
1998-08-02 (28 years ago)
Launch vehicle
PEGASUS XL/HAPS
Launch site
Pegasus Launch, Eastern Range Air Space (ERAS)
Object type
Payload
Rocket body
Debris
Shape & HBR
Cyl + 2 Pan, 4.2 m
Radar Cross Section
1.484 m², Medium (>0.1 m² and < 1m²)

Expand to show TLE details & history
Last TLE update: 2 days ago

TLE from 2 days ago
0 ORBCOMM FM 13
1 25420U 98046H   26036.72602576  .00001854  00000-0  64904-3 0  9996
2 25420  44.9963 156.8931 0003527   5.7264 354.3624 14.38366493436854
Epoch: 2026-02-05T17:25Z
TLE epoch observation values (Epoch: 2026-02-05T17:25:28.625Z)
Latitude
-0.00003°
Longitude
119.64968°
Altitude
761.393 km
Speed
7.476 km/s
True Right ascension
10h 27m 34s
True Declination
0° 00' 00"
Sunlit
Object was in full shadow at epoch
Visualization orbit readout
Latitude
Unknown
Longitude
Unknown
Altitude
Unknown
Speed
Unknown
Apparent Right ascension
Unknown
Apparent Declination
Unknown
Sunlit
N/A
Visualization observer readout
Local Sidereal Time
11:16:57
Azimuth
Unknown
Elevation
Unknown
Doppler factor
Unknown
Orbital elements
Apogee altitude
767.967 km
Perigee altitude
762.928 km
Semi-major axis
7,143.585 km
Eccentricity
0.00035
Inclination
44.9963°
RAAN
156.8931°
Arg. of periapsis
5.7264°
True anomaly
354.35843°
Mean anomaly
354.3624°
Eccentric anomaly
354.36041°
Mean motion
3.59475 °/min
Orbital period
100.15 mins
BSTAR
0.00064904
Loading maneuver chart data...
Computing Atmospheric mass density...

Documentation

Showing up to 5 results
|